Tracking 19192 objects as of 19-Jun-2018
HD Live streaming from Space Station
objects crossing your sky now

METEOSAT 5 AKM

Track METEOSAT 5 AKM now!


NORAD ID: 21904
Int'l Code: 1991-015E
Perigee: 35,164.4 km
Apogee: 36,477.9 km
Inclination: 14.4 °
Period: 1,437.5 minutes
Semi major axis: 42192 km
RCS: 0.9471 m2 (medium)
Launch date: March 2, 1991
Source: European Space Agency (ESA)
Launch site: FRENCH GUIANA (FRGUI)

Note: This is a ROCKET BODY
aabbcc
Your satellite tracking list
Your tracking list is empty




NASA's NSSDC Master Catalog

Two Line Element Set (TLE):
1 21904U 91015E   18169.79991639 -.00000177  00000-0  00000+0 0  9995
2 21904  14.4228   1.5497 0155662 158.5738 200.7002  1.00174115 87249
Source of the keplerian elements: AFSPC